This demonstration page uses our WeatherBlox Daily Observations layout. Learn more.

Left ArrowRight Arrow

Hourly Observations for November 4, 2018

Temp ( °F °C ) Dew Point ( °F °C ) Humidity (%) Winds ( mph kmh ) Pressure ( in mb ) Visibility ( mi km ) Precip ( " mm )
12:53 am 00:53 Clear 41 5 37 2.8 86 86 E 5 7 30.32 1027 10 16 N/A
1:53 am 01:53 Clear 42 5.6 39 3.9 89 89 N N/A 30.32 1027 10 16 N/A
1:53 am 01:53 Clear 42 5.6 38 3.3 85 85 N N/A 30.32 1027 10 16 N/A
2:53 am 02:53 Mostly Cloudy 43 6.1 39 3.9 86 86 E 5 7 30.32 1027 10 16 N/A
3:53 am 03:53 Clear 44 6.7 38 3.3 79 79 E 5 7 30.29 1026 10 16 N/A
4:53 am 04:53 Clear 45 7.2 38 3.3 77 77 E 6 9 30.29 1026 10 16 N/A
5:53 am 05:53 Clear 45 7.2 36 2.2 71 71 ESE 5 7 30.30 1026 10 16 N/A
6:53 am 06:53 Clear 45 7.2 37 2.8 74 74 ESE 6 9 30.28 1026 10 16 N/A
7:53 am 07:53 Sunny 44 6.7 36 2.2 73 73 N N/A 30.29 1026 10 16 N/A
8:53 am 08:53 Sunny 48 8.9 37 2.8 66 66 ESE 6 9 30.29 1026 10 16 N/A
9:53 am 09:53 Sunny 52 11.1 37 2.8 57 57 VRB 7 11 30.26 1025 10 16 N/A
10:53 am 10:53 Sunny 55 12.8 39 3.9 55 55 SE 8 13 30.23 1024 10 16 N/A
11:53 am 11:53 Sunny 58 14.4 40 4.4 51 51 VRB 7 11 30.19 1022 10 16 N/A
12:53 pm 12:53 Sunny 59 15 40 4.4 49 49 VRB 6 9 30.14 1021 10 16 N/A
1:53 pm 13:53 Sunny 61 16.1 40 4.4 46 46 SSE 8 13 30.11 1020 10 16 N/A
2:53 pm 14:53 Sunny 62 16.7 39 3.9 43 43 VRB 6 9 30.08 1019 10 16 N/A
3:53 pm 15:53 Sunny 62 16.7 40 4.4 44 44 SSE 6 9 30.07 1018 10 16 N/A
4:53 pm 16:53 Partly Cloudy 61 16.1 39 3.9 44 44 VRB 5 7 30.06 1018 10 16 N/A
5:53 pm 17:53 Cloudy 59 15 40 4.4 49 49 VRB 5 7 30.09 1019 10 16 N/A
6:53 pm 18:53 Cloudy with Light Rain 54 12.2 44 6.7 69 69 SSW 7 11 30.08 1019 10 16 0.02 0.51
7:53 pm 19:53 Cloudy with Light Rain 52 11.1 46 7.8 80 80 N N/A 30.07 1018 10 16 0.03 0.76
8:53 pm 20:53 Cloudy with Light Rain 51 10.6 46 7.8 83 83 S 5 7 30.07 1018 6 10 0.02 0.51
9:53 pm 21:53 Cloudy with Light Rain 50 10 47 8.3 89 89 N N/A 30.06 1018 9 14 0.03 0.76
10:53 pm 22:53 Cloudy with Light Rain 50 10 47 8.3 89 89 N N/A 30.05 1018 10 16 0.01 0.25
11:37 pm 23:37 Cloudy with Light Rain 51 10.6 47 8.3 86 86 VRB 5 7 30.06 1018 10 16 0.01 0.25
11:50 pm 23:50 Cloudy with Light Rain 50 10 46 8 88 88 SE 3 6 30.06 1018 10 16 0.01 0.25
11:53 pm 23:53 Cloudy 50 10 47 8.3 89 89 S 5 7 30.04 1017 10 16 0.01 0.25

Powered by AerisWeather